UGUISU (44331 NORAD) Tracking and Keplerian Element Data

This shows tracking and keplerian element data for the satellite.

Feedback or suggestion? Click here.




ElementValue
Catalog44331
NameUGUISU
Epoch Orbit524
Epoch Day201.84196714
Epoch Year2019
RAAN194.036
Inclination51.6399
Eccentricity0.0006854
Argument of Perigee201.0264
Mean Anonmoly159.0445
Mean Motion15.52315851
Decay Rate3.736E-05
L11 44331U 98067QG 19201.84196714 .00003736 00000-0 67797-4 0 9997
L22 44331 51.6399 194.0360 0006854 201.0264 159.0445 15.52315851 5246

Live tracking and technical data element details for UGUISU (NORAD 44331). UGUISU can be tracked NOW for your location showing map with azimuth and elevation plus other details from your city location.

Track the satellite on the map from your city or location and see movement details for azimuth, elevation, latitude, longitude, range, height, and movement on the map or in text.







IsCatalogInMostPopularTable: catalog: 44331, numindb: 9
Update: records affected: 1



GetName: 44331 UGUISU

Hit Count: updated at: Sun, 21 Jul 2019 21:55:48 GMT